Location: Aula-Vintri
(58.3875°N, 22.4322°E)
Time: 00:41:20
(UTC+00:00)

ADEOS Rocket - Pass Details

Date: 13 October 2019
Orbit: 859 x 1306 km, 98.7° (Epoch: 13 November)

Event Time Altitude Azimuth Distance (km) Brightness Sun altitude
Rises 19:05:54 0° 17° (NNE) 4,291 6.6 -27.8°
Reaches altitude 10° 19:08:37 10° 16° (NNE) 3,333 6.0 -28.1°
Maximum altitude 19:16:26 79° 292° (WNW) 1,329 3.6 -28.9°
Drops below altitude 10° 19:24:01 10° 208° (SSW) 3,233 5.6 -29.7°
Sets 19:26:36 0° 207° (SSW) 4,155 6.2 -30.0°
